owner,sensor,date,latitude,longitude,vertical_datum,wind_speed,wind_to_direction,wind_speed_of_gust,qcFlag 
TCOON,ioos:station:TCOON:013:1,2017-03-01T00:06:00Z,27.4847,-97.3181,0.0,7.9,140.0,10.7,'11111222,11111222,11111222' 
TCOON,ioos:station:TCOON:013:1,2017-03-01T00:18:00Z,27.4847,-97.3181,0.0,8.7,143.0,10.7,'11111222,11111222,11111222' 
TCOON,ioos:station:TCOON:013:1,2017-03-01T00:24:00Z,27.4847,-97.3181,0.0,8.2,141.0,10.1,'11111222,11111222,11111222' 
TCOON,ioos:station:TCOON:013:1,2017-03-01T00:30:00Z,27.4847,-97.3181,0.0,8.3,140.0,10.8,'11111222,11111222,11111222' 
TCOON,ioos:station:TCOON:013:1,2017-03-01T00:36:00Z,27.4847,-97.3181,0.0,8.3,142.0,10.6,'11111222,11111222,11111222' 
TCOON,ioos:station:TCOON:013:1,2017-03-01T00:48:00Z,27.4847,-97.3181,0.0,7.7,145.0,9.2,'11111222,11111222,11111222' 
TCOON,ioos:station:TCOON:013:1,2017-03-01T00:54:00Z,27.4847,-97.3181,0.0,8.7,143.0,10.2,'11111222,11111222,11111222' 
TCOON,ioos:station:TCOON:013:1,2017-03-01T01:06:00Z,27.4847,-97.3181,0.0,9.2,144.0,10.9,'11111222,11111222,11111222' 
TCOON,ioos:station:TCOON:013:1,2017-03-01T01:12:00Z,27.4847,-97.3181,0.0,9.7,145.0,11.4,'11111222,11111222,11111222' 
TCOON,ioos:station:TCOON:013:1,2017-03-01T01:18:00Z,27.4847,-97.3181,0.0,9.0,145.0,11.7,'11111222,11111222,11111222' 
TCOON,ioos:station:TCOON:013:1,2017-03-01T01:24:00Z,27.4847,-97.3181,0.0,9.2,144.0,11.9,'11111222,11111222,11111222' 
TCOON,ioos:station:TCOON:013:1,2017-03-01T01:30:00Z,27.4847,-97.3181,0.0,9.0,142.0,11.4,'11111222,11111222,11111222' 
TCOON,ioos:station:TCOON:013:1,2017-03-01T01:36:00Z,27.4847,-97.3181,0.0,9.0,143.0,10.4,'11111222,11111222,11111222' 
TCOON,ioos:station:TCOON:013:1,2017-03-01T01:42:00Z,27.4847,-97.3181,0.0,9.5,143.0,12.0,'11111222,11111222,11111222' 
TCOON,ioos:station:TCOON:013:1,2017-03-01T01:48:00Z,27.4847,-97.3181,0.0,9.0,145.0,11.1,'11111222,11111222,11111222' 
TCOON,ioos:station:TCOON:013:1,2017-03-01T01:54:00Z,27.4847,-97.3181,0.0,8.9,146.0,11.6,'11111222,11111222,11111222' 
TCOON,ioos:station:TCOON:013:1,2017-03-01T02:06:00Z,27.4847,-97.3181,0.0,9.0,142.0,10.4,'11111222,11111222,11111222' 
TCOON,ioos:station:TCOON:013:1,2017-03-01T02:12:00Z,27.4847,-97.3181,0.0,8.6,144.0,10.2,'11111222,11111222,11111222' 
TCOON,ioos:station:TCOON:013:1,2017-03-01T02:18:00Z,27.4847,-97.3181,0.0,8.1,147.0,10.0,'11111222,11111222,11111222' 
TCOON,ioos:station:TCOON:013:1,2017-03-01T02:24:00Z,27.4847,-97.3181,0.0,6.9,148.0,9.1,'11111222,11111222,11111222' 
TCOON,ioos:station:TCOON:013:1,2017-03-01T02:30:00Z,27.4847,-97.3181,0.0,7.1,149.0,8.9,'11111222,11111222,11111222' 
TCOON,ioos:station:TCOON:013:1,2017-03-01T02:36:00Z,27.4847,-97.3181,0.0,7.0,147.0,8.9,'11111222,11111222,11111222' 
TCOON,ioos:station:TCOON:013:1,2017-03-01T02:42:00Z,27.4847,-97.3181,0.0,7.2,148.0,8.9,'11111222,11111222,11111222' 
TCOON,ioos:station:TCOON:013:1,2017-03-01T02:48:00Z,27.4847,-97.3181,0.0,8.1,151.0,9.7,'11111222,11111222,11111222' 
TCOON,ioos:station:TCOON:013:1,2017-03-01T02:54:00Z,27.4847,-97.3181,0.0,7.8,154.0,9.4,'11111222,11111222,11111222' 
TCOON,ioos:station:TCOON:013:1,2017-03-01T03:00:00Z,27.4847,-97.3181,0.0,7.2,154.0,9.3,'11111222,11111222,11111222' 
TCOON,ioos:station:TCOON:013:1,2017-03-01T03:06:00Z,27.4847,-97.3181,0.0,7.2,154.0,8.8,'11111222,11111222,11111222' 
TCOON,ioos:station:TCOON:013:1,2017-03-01T03:12:00Z,27.4847,-97.3181,0.0,6.8,154.0,8.6,'11111222,11111222,11111222' 
TCOON,ioos:station:TCOON:013:1,2017-03-01T03:18:00Z,27.4847,-97.3181,0.0,7.2,153.0,8.5,'11111222,11111222,11111222' 
TCOON,ioos:station:TCOON:013:1,2017-03-01T03:24:00Z,27.4847,-97.3181,0.0,7.1,154.0,8.7,'11111222,11111222,11111222' 
TCOON,ioos:station:TCOON:013:1,2017-03-01T03:30:00Z,27.4847,-97.3181,0.0,7.4,160.0,9.3,'11111222,11111222,11111222' 
TCOON,ioos:station:TCOON:013:1,2017-03-01T03:36:00Z,27.4847,-97.3181,0.0,7.5,160.0,9.1,'11111222,11111222,11111222' 
TCOON,ioos:station:TCOON:013:1,2017-03-01T03:42:00Z,27.4847,-97.3181,0.0,7.4,162.0,9.4,'11111222,11111222,11111222' 
TCOON,ioos:station:TCOON:013:1,2017-03-01T03:48:00Z,27.4847,-97.3181,0.0,7.7,160.0,9.5,'11111222,11111222,11111222' 
TCOON,ioos:station:TCOON:013:1,2017-03-01T04:00:00Z,27.4847,-97.3181,0.0,7.4,162.0,9.1,'11111222,11111222,11111222' 
TCOON,ioos:station:TCOON:013:1,2017-03-01T04:06:00Z,27.4847,-97.3181,0.0,7.8,161.0,9.6,'11111222,11111222,11111222' 
TCOON,ioos:station:TCOON:013:1,2017-03-01T04:12:00Z,27.4847,-97.3181,0.0,7.1,159.0,9.6,'11111222,11111222,11111222' 
TCOON,ioos:station:TCOON:013:1,2017-03-01T04:24:00Z,27.4847,-97.3181,0.0,7.7,159.0,9.4,'11111222,11111222,11111222' 
TCOON,ioos:station:TCOON:013:1,2017-03-01T04:36:00Z,27.4847,-97.3181,0.0,7.6,160.0,9.3,'11111222,11111222,11111222' 
TCOON,ioos:station:TCOON:013:1,2017-03-01T04:42:00Z,27.4847,-97.3181,0.0,7.8,161.0,9.1,'11111222,11111222,11111222' 
TCOON,ioos:station:TCOON:013:1,2017-03-01T04:48:00Z,27.4847,-97.3181,0.0,7.2,162.0,8.9,'11111222,11111222,11111222' 
TCOON,ioos:station:TCOON:013:1,2017-03-01T04:54:00Z,27.4847,-97.3181,0.0,7.6,159.0,9.2,'11111222,11111222,11111222' 
TCOON,ioos:station:TCOON:013:1,2017-03-01T05:12:00Z,27.4847,-97.3181,0.0,8.8,162.0,10.2,'11111222,11111222,11111222' 
TCOON,ioos:station:TCOON:013:1,2017-03-01T05:30:00Z,27.4847,-97.3181,0.0,8.3,158.0,10.3,'11111222,11111222,11111222' 
TCOON,ioos:station:TCOON:013:1,2017-03-01T05:36:00Z,27.4847,-97.3181,0.0,9.0,156.0,10.6,'11111222,11111222,11111222' 
TCOON,ioos:station:TCOON:013:1,2017-03-01T05:42:00Z,27.4847,-97.3181,0.0,9.0,158.0,11.3,'11111222,11111222,11111222' 
TCOON,ioos:station:TCOON:013:1,2017-03-01T05:48:00Z,27.4847,-97.3181,0.0,8.8,160.0,10.3,'11111222,11111222,11111222' 
TCOON,ioos:station:TCOON:013:1,2017-03-01T05:54:00Z,27.4847,-97.3181,0.0,9.1,157.0,10.9,'11111222,11111222,11111222' 
TCOON,ioos:station:TCOON:013:1,2017-03-01T06:00:00Z,27.4847,-97.3181,0.0,8.9,159.0,11.9,'11111222,11111222,11111222' 
TCOON,ioos:station:TCOON:013:1,2017-03-01T06:06:00Z,27.4847,-97.3181,0.0,8.9,157.0,10.3,'11111222,11111222,11111222' 
TCOON,ioos:station:TCOON:013:1,2017-03-01T06:12:00Z,27.4847,-97.3181,0.0,8.1,159.0,11.2,'11111222,11111222,11111222' 
TCOON,ioos:station:TCOON:013:1,2017-03-01T06:24:00Z,27.4847,-97.3181,0.0,9.0,161.0,10.6,'11111222,11111222,11111222' 
TCOON,ioos:station:TCOON:013:1,2017-03-01T06:30:00Z,27.4847,-97.3181,0.0,9.3,164.0,11.4,'11111222,11111222,11111222' 
TCOON,ioos:station:TCOON:013:1,2017-03-01T06:36:00Z,27.4847,-97.3181,0.0,9.1,160.0,11.6,'11111222,11111222,11111222' 
TCOON,ioos:station:TCOON:013:1,2017-03-01T06:42:00Z,27.4847,-97.3181,0.0,9.4,161.0,11.2,'11111222,11111222,11111222' 
TCOON,ioos:station:TCOON:013:1,2017-03-01T06:48:00Z,27.4847,-97.3181,0.0,8.5,161.0,12.6,'11111222,11111222,11111222' 
TCOON,ioos:station:TCOON:013:1,2017-03-01T06:54:00Z,27.4847,-97.3181,0.0,9.3,161.0,11.2,'11111222,11111222,11111222' 
TCOON,ioos:station:TCOON:013:1,2017-03-01T07:00:00Z,27.4847,-97.3181,0.0,9.8,158.0,11.5,'11111222,11111222,11111222' 
TCOON,ioos:station:TCOON:013:1,2017-03-01T07:12:00Z,27.4847,-97.3181,0.0,11.1,157.0,13.0,'11111222,11111222,11111222' 
TCOON,ioos:station:TCOON:013:1,2017-03-01T07:18:00Z,27.4847,-97.3181,0.0,11.1,158.0,14.3,'11111222,11111222,11111222' 
TCOON,ioos:station:TCOON:013:1,2017-03-01T07:24:00Z,27.4847,-97.3181,0.0,11.0,156.0,13.0,'11111222,11111222,11111222' 
TCOON,ioos:station:TCOON:013:1,2017-03-01T07:30:00Z,27.4847,-97.3181,0.0,10.7,157.0,13.4,'11111222,11111222,11111222' 
TCOON,ioos:station:TCOON:013:1,2017-03-01T07:42:00Z,27.4847,-97.3181,0.0,9.9,161.0,12.3,'11111222,11111222,11111222' 
TCOON,ioos:station:TCOON:013:1,2017-03-01T07:48:00Z,27.4847,-97.3181,0.0,10.1,163.0,13.0,'11111222,11111222,11111222' 
TCOON,ioos:station:TCOON:013:1,2017-03-01T07:54:00Z,27.4847,-97.3181,0.0,9.8,161.0,12.2,'11111222,11111222,11111222' 
TCOON,ioos:station:TCOON:013:1,2017-03-01T08:06:00Z,27.4847,-97.3181,0.0,10.8,159.0,12.8,'11111222,11111222,11111222' 
TCOON,ioos:station:TCOON:013:1,2017-03-01T08:12:00Z,27.4847,-97.3181,0.0,10.1,159.0,12.8,'11111222,11111222,11111222' 
TCOON,ioos:station:TCOON:013:1,2017-03-01T08:18:00Z,27.4847,-97.3181,0.0,10.1,161.0,11.8,'11111222,11111222,11111222' 
TCOON,ioos:station:TCOON:013:1,2017-03-01T08:24:00Z,27.4847,-97.3181,0.0,9.5,163.0,11.0,'11111222,11111222,11111222' 
TCOON,ioos:station:TCOON:013:1,2017-03-01T08:30:00Z,27.4847,-97.3181,0.0,7.9,174.0,9.4,'11111222,11111222,11111222' 
TCOON,ioos:station:TCOON:013:1,2017-03-01T08:36:00Z,27.4847,-97.3181,0.0,7.9,174.0,9.4,'11111222,11111222,11111222' 
TCOON,ioos:station:TCOON:013:1,2017-03-01T08:42:00Z,27.4847,-97.3181,0.0,6.6,171.0,9.4,'11111222,11111222,11111222' 
TCOON,ioos:station:TCOON:013:1,2017-03-01T08:48:00Z,27.4847,-97.3181,0.0,7.8,168.0,9.3,'11111222,11111222,11111222' 
TCOON,ioos:station:TCOON:013:1,2017-03-01T08:54:00Z,27.4847,-97.3181,0.0,6.9,172.0,10.2,'11111222,11111222,11111222' 
TCOON,ioos:station:TCOON:013:1,2017-03-01T09:00:00Z,27.4847,-97.3181,0.0,6.9,177.0,8.4,'11111222,11111222,11111222' 
TCOON,ioos:station:TCOON:013:1,2017-03-01T09:12:00Z,27.4847,-97.3181,0.0,6.6,173.0,8.0,'11111222,11111222,11111222' 
TCOON,ioos:station:TCOON:013:1,2017-03-01T09:30:00Z,27.4847,-97.3181,0.0,6.2,174.0,7.3,'11111222,11111222,11111222' 
TCOON,ioos:station:TCOON:013:1,2017-03-01T09:36:00Z,27.4847,-97.3181,0.0,7.0,174.0,8.4,'11111222,11111222,11111222' 
TCOON,ioos:station:TCOON:013:1,2017-03-01T09:42:00Z,27.4847,-97.3181,0.0,6.4,172.0,7.7,'11111222,11111222,11111222' 
TCOON,ioos:station:TCOON:013:1,2017-03-01T09:48:00Z,27.4847,-97.3181,0.0,4.3,177.0,6.9,'11111222,11111222,11111222' 
TCOON,ioos:station:TCOON:013:1,2017-03-01T10:00:00Z,27.4847,-97.3181,0.0,4.9,177.0,5.9,'11111222,11111222,11111222' 
TCOON,ioos:station:TCOON:013:1,2017-03-01T10:06:00Z,27.4847,-97.3181,0.0,4.9,174.0,6.4,'11111222,11111222,11111222' 
TCOON,ioos:station:TCOON:013:1,2017-03-01T10:12:00Z,27.4847,-97.3181,0.0,4.2,172.0,6.0,'11111222,11111222,11111222' 
TCOON,ioos:station:TCOON:013:1,2017-03-01T10:18:00Z,27.4847,-97.3181,0.0,4.2,163.0,5.4,'11111222,11111222,11111222' 
TCOON,ioos:station:TCOON:013:1,2017-03-01T10:24:00Z,27.4847,-97.3181,0.0,4.0,159.0,4.9,'11111222,11111222,11111222' 
TCOON,ioos:station:TCOON:013:1,2017-03-01T10:30:00Z,27.4847,-97.3181,0.0,4.1,158.0,4.8,'11111222,11111222,11111222' 
TCOON,ioos:station:TCOON:013:1,2017-03-01T10:48:00Z,27.4847,-97.3181,0.0,3.4,155.0,4.4,'11111222,11111222,11111222' 
TCOON,ioos:station:TCOON:013:1,2017-03-01T10:54:00Z,27.4847,-97.3181,0.0,3.5,158.0,4.3,'11111222,11111222,11111222' 
TCOON,ioos:station:TCOON:013:1,2017-03-01T11:00:00Z,27.4847,-97.3181,0.0,4.1,152.0,4.8,'11111222,11111222,11111222' 
TCOON,ioos:station:TCOON:013:1,2017-03-01T11:06:00Z,27.4847,-97.3181,0.0,4.1,146.0,5.0,'11111222,11111222,11111222' 
TCOON,ioos:station:TCOON:013:1,2017-03-01T11:12:00Z,27.4847,-97.3181,0.0,4.0,147.0,4.7,'11111222,11111222,11111222' 
TCOON,ioos:station:TCOON:013:1,2017-03-01T11:18:00Z,27.4847,-97.3181,0.0,4.3,142.0,5.0,'11111222,11111222,11111222' 
TCOON,ioos:station:TCOON:013:1,2017-03-01T11:24:00Z,27.4847,-97.3181,0.0,4.4,143.0,5.2,'11111222,11111222,11111222' 
TCOON,ioos:station:TCOON:013:1,2017-03-01T11:30:00Z,27.4847,-97.3181,0.0,4.4,140.0,4.9,'11111222,11111222,11111222' 
TCOON,ioos:station:TCOON:013:1,2017-03-01T11:36:00Z,27.4847,-97.3181,0.0,4.8,139.0,5.6,'11111222,11111222,11111222' 
TCOON,ioos:station:TCOON:013:1,2017-03-01T11:42:00Z,27.4847,-97.3181,0.0,5.3,139.0,6.4,'11111222,11111222,11111222' 
TCOON,ioos:station:TCOON:013:1,2017-03-01T11:48:00Z,27.4847,-97.3181,0.0,5.4,141.0,6.3,'11111222,11111222,11111222' 
TCOON,ioos:station:TCOON:013:1,2017-03-01T11:54:00Z,27.4847,-97.3181,0.0,4.7,144.0,6.2,'11111222,11111222,11111222' 
TCOON,ioos:station:TCOON:013:1,2017-03-01T12:00:00Z,27.4847,-97.3181,0.0,5.2,144.0,6.1,'11111222,11111222,11111222' 
TCOON,ioos:station:TCOON:013:1,2017-03-01T12:06:00Z,27.4847,-97.3181,0.0,4.5,145.0,6.0,'11111222,11111222,11111222' 
TCOON,ioos:station:TCOON:013:1,2017-03-01T12:12:00Z,27.4847,-97.3181,0.0,5.1,149.0,6.5,'11111222,11111222,11111222' 
TCOON,ioos:station:TCOON:013:1,2017-03-01T12:18:00Z,27.4847,-97.3181,0.0,4.8,149.0,6.6,'11111222,11111222,11111222' 
TCOON,ioos:station:TCOON:013:1,2017-03-01T12:24:00Z,27.4847,-97.3181,0.0,3.7,153.0,5.5,'11111222,11111222,11111222' 
TCOON,ioos:station:TCOON:013:1,2017-03-01T12:30:00Z,27.4847,-97.3181,0.0,3.3,159.0,4.0,'11111222,11111222,11111222' 
TCOON,ioos:station:TCOON:013:1,2017-03-01T12:54:00Z,27.4847,-97.3181,0.0,2.3,157.0,2.7,'11111222,11111222,11111222' 
TCOON,ioos:station:TCOON:013:1,2017-03-01T13:00:00Z,27.4847,-97.3181,0.0,3.2,148.0,3.7,'11111222,11111222,11111222' 
TCOON,ioos:station:TCOON:013:1,2017-03-01T13:06:00Z,27.4847,-97.3181,0.0,3.6,145.0,4.3,'11111222,11111222,11111222' 
TCOON,ioos:station:TCOON:013:1,2017-03-01T13:12:00Z,27.4847,-97.3181,0.0,4.1,142.0,4.9,'11111222,11111222,11111222' 
TCOON,ioos:station:TCOON:013:1,2017-03-01T13:24:00Z,27.4847,-97.3181,0.0,4.5,148.0,5.7,'11111222,11111222,11111222' 
TCOON,ioos:station:TCOON:013:1,2017-03-01T13:30:00Z,27.4847,-97.3181,0.0,3.8,150.0,5.0,'11111222,11111222,11111222' 
TCOON,ioos:station:TCOON:013:1,2017-03-01T13:36:00Z,27.4847,-97.3181,0.0,4.3,144.0,4.9,'11111222,11111222,11111222' 
TCOON,ioos:station:TCOON:013:1,2017-03-01T13:42:00Z,27.4847,-97.3181,0.0,3.9,145.0,5.1,'11111222,11111222,11111222' 
TCOON,ioos:station:TCOON:013:1,2017-03-01T13:54:00Z,27.4847,-97.3181,0.0,2.7,144.0,4.1,'11111222,11111222,11111222' 
TCOON,ioos:station:TCOON:013:1,2017-03-01T14:00:00Z,27.4847,-97.3181,0.0,3.3,139.0,4.1,'11111222,11111222,11111222' 
TCOON,ioos:station:TCOON:013:1,2017-03-01T14:06:00Z,27.4847,-97.3181,0.0,3.5,140.0,4.1,'11111222,11111222,11111222' 
TCOON,ioos:station:TCOON:013:1,2017-03-01T14:12:00Z,27.4847,-97.3181,0.0,3.3,144.0,4.6,'11111222,11111222,11111222' 
TCOON,ioos:station:TCOON:013:1,2017-03-01T14:18:00Z,27.4847,-97.3181,0.0,3.7,150.0,4.7,'11111222,11111222,11111222' 
TCOON,ioos:station:TCOON:013:1,2017-03-01T14:24:00Z,27.4847,-97.3181,0.0,3.6,149.0,5.0,'11111222,11111222,11111222' 
TCOON,ioos:station:TCOON:013:1,2017-03-01T14:30:00Z,27.4847,-97.3181,0.0,3.6,149.0,5.0,'11111222,11111222,11111222' 
TCOON,ioos:station:TCOON:013:1,2017-03-01T14:36:00Z,27.4847,-97.3181,0.0,3.2,162.0,4.5,'11111222,11111222,11111222' 
TCOON,ioos:station:TCOON:013:1,2017-03-01T14:42:00Z,27.4847,-97.3181,0.0,4.0,155.0,4.9,'11111222,11111222,11111222' 
TCOON,ioos:station:TCOON:013:1,2017-03-01T14:48:00Z,27.4847,-97.3181,0.0,2.9,169.0,4.5,'11111222,11111222,11111222' 
TCOON,ioos:station:TCOON:013:1,2017-03-01T14:54:00Z,27.4847,-97.3181,0.0,2.7,290.0,3.5,'11111222,11111222,11111222' 
TCOON,ioos:station:TCOON:013:1,2017-03-01T15:00:00Z,27.4847,-97.3181,0.0,4.1,320.0,4.4,'11111222,11111222,11111222' 
TCOON,ioos:station:TCOON:013:1,2017-03-01T15:06:00Z,27.4847,-97.3181,0.0,2.5,341.0,4.4,'11111222,11111222,11111222' 
TCOON,ioos:station:TCOON:013:1,2017-03-01T15:12:00Z,27.4847,-97.3181,0.0,2.0,332.0,2.5,'11111222,11111222,11111222' 
TCOON,ioos:station:TCOON:013:1,2017-03-01T15:18:00Z,27.4847,-97.3181,0.0,0.9,355.0,2.1,'11111222,11111222,11111222' 
TCOON,ioos:station:TCOON:013:1,2017-03-01T15:24:00Z,27.4847,-97.3181,0.0,0.7,28.0,1.0,'11111222,11111222,11111222' 
TCOON,ioos:station:TCOON:013:1,2017-03-01T15:30:00Z,27.4847,-97.3181,0.0,0.9,22.0,1.2,'11111222,11111222,11111222' 
TCOON,ioos:station:TCOON:013:1,2017-03-01T15:36:00Z,27.4847,-97.3181,0.0,0.7,27.0,1.0,'11111222,11111222,11111222' 
TCOON,ioos:station:TCOON:013:1,2017-03-01T15:42:00Z,27.4847,-97.3181,0.0,1.6,29.0,1.8,'11111222,11111222,11111222' 
TCOON,ioos:station:TCOON:013:1,2017-03-01T15:48:00Z,27.4847,-97.3181,0.0,1.3,42.0,1.5,'11111222,11111222,11111222' 
TCOON,ioos:station:TCOON:013:1,2017-03-01T15:54:00Z,27.4847,-97.3181,0.0,1.2,48.0,1.5,'11111222,11111222,11111222' 
TCOON,ioos:station:TCOON:013:1,2017-03-01T16:00:00Z,27.4847,-97.3181,0.0,2.5,30.0,2.8,'11111222,11111222,11111222' 
TCOON,ioos:station:TCOON:013:1,2017-03-01T16:06:00Z,27.4847,-97.3181,0.0,4.5,25.0,4.9,'11111222,11111222,11111222' 
TCOON,ioos:station:TCOON:013:1,2017-03-01T16:12:00Z,27.4847,-97.3181,0.0,4.4,29.0,4.9,'11111222,11111222,11111222' 
TCOON,ioos:station:TCOON:013:1,2017-03-01T16:30:00Z,27.4847,-97.3181,0.0,3.8,33.0,4.2,'11111222,11111222,11111222' 
TCOON,ioos:station:TCOON:013:1,2017-03-01T16:36:00Z,27.4847,-97.3181,0.0,3.8,31.0,4.3,'11111222,11111222,11111222' 
TCOON,ioos:station:TCOON:013:1,2017-03-01T16:48:00Z,27.4847,-97.3181,0.0,3.5,27.0,4.1,'11111222,11111222,11111222' 
TCOON,ioos:station:TCOON:013:1,2017-03-01T17:06:00Z,27.4847,-97.3181,0.0,2.8,33.0,3.5,'11111222,11111222,11111222' 
TCOON,ioos:station:TCOON:013:1,2017-03-01T17:12:00Z,27.4847,-97.3181,0.0,1.6,35.0,3.6,'11111222,11111222,11111222' 
TCOON,ioos:station:TCOON:013:1,2017-03-01T17:18:00Z,27.4847,-97.3181,0.0,2.4,51.0,3.4,'11111222,11111222,11111222' 
TCOON,ioos:station:TCOON:013:1,2017-03-01T17:24:00Z,27.4847,-97.3181,0.0,3.5,79.0,4.3,'11111222,11111222,11111222' 
TCOON,ioos:station:TCOON:013:1,2017-03-01T17:36:00Z,27.4847,-97.3181,0.0,4.2,61.0,4.6,'11111222,11111222,11111222' 
TCOON,ioos:station:TCOON:013:1,2017-03-01T17:42:00Z,27.4847,-97.3181,0.0,4.1,71.0,4.7,'11111222,11111222,11111222' 
TCOON,ioos:station:TCOON:013:1,2017-03-01T17:48:00Z,27.4847,-97.3181,0.0,4.1,75.0,4.9,'11111222,11111222,11111222' 
TCOON,ioos:station:TCOON:013:1,2017-03-01T18:00:00Z,27.4847,-97.3181,0.0,4.3,86.0,4.9,'11111222,11111222,11111222' 
TCOON,ioos:station:TCOON:013:1,2017-03-01T18:06:00Z,27.4847,-97.3181,0.0,4.3,91.0,5.5,'11111222,11111222,11111222' 
TCOON,ioos:station:TCOON:013:1,2017-03-01T18:12:00Z,27.4847,-97.3181,0.0,3.7,82.0,5.3,'11111222,11111222,11111222' 
TCOON,ioos:station:TCOON:013:1,2017-03-01T18:18:00Z,27.4847,-97.3181,0.0,4.1,92.0,4.8,'11111222,11111222,11111222' 
TCOON,ioos:station:TCOON:013:1,2017-03-01T18:24:00Z,27.4847,-97.3181,0.0,4.0,90.0,5.0,'11111222,11111222,11111222' 
TCOON,ioos:station:TCOON:013:1,2017-03-01T18:30:00Z,27.4847,-97.3181,0.0,3.8,95.0,5.3,'11111222,11111222,11111222' 
TCOON,ioos:station:TCOON:013:1,2017-03-01T18:36:00Z,27.4847,-97.3181,0.0,4.2,103.0,5.2,'11111222,11111222,11111222' 
TCOON,ioos:station:TCOON:013:1,2017-03-01T18:42:00Z,27.4847,-97.3181,0.0,4.1,98.0,5.3,'11111222,11111222,11111222' 
TCOON,ioos:station:TCOON:013:1,2017-03-01T18:48:00Z,27.4847,-97.3181,0.0,3.9,97.0,5.5,'11111222,11111222,11111222' 
TCOON,ioos:station:TCOON:013:1,2017-03-01T18:54:00Z,27.4847,-97.3181,0.0,3.7,95.0,5.1,'11111222,11111222,11111222' 
TCOON,ioos:station:TCOON:013:1,2017-03-01T19:06:00Z,27.4847,-97.3181,0.0,3.4,103.0,4.4,'11111222,11111222,11111222' 
TCOON,ioos:station:TCOON:013:1,2017-03-01T19:30:00Z,27.4847,-97.3181,0.0,4.3,78.0,4.9,'11111222,11111222,11111222' 
TCOON,ioos:station:TCOON:013:1,2017-03-01T19:36:00Z,27.4847,-97.3181,0.0,4.1,80.0,5.0,'11111222,11111222,11111222' 
TCOON,ioos:station:TCOON:013:1,2017-03-01T19:42:00Z,27.4847,-97.3181,0.0,4.3,75.0,4.7,'11111222,11111222,11111222' 
TCOON,ioos:station:TCOON:013:1,2017-03-01T19:48:00Z,27.4847,-97.3181,0.0,4.1,71.0,4.5,'11111222,11111222,11111222' 
TCOON,ioos:station:TCOON:013:1,2017-03-01T20:06:00Z,27.4847,-97.3181,0.0,3.2,77.0,3.7,'11111222,11111222,11111222' 
TCOON,ioos:station:TCOON:013:1,2017-03-01T20:12:00Z,27.4847,-97.3181,0.0,3.2,82.0,3.6,'11111222,11111222,11111222' 
TCOON,ioos:station:TCOON:013:1,2017-03-01T20:18:00Z,27.4847,-97.3181,0.0,2.9,67.0,3.7,'11111222,11111222,11111222' 
TCOON,ioos:station:TCOON:013:1,2017-03-01T20:24:00Z,27.4847,-97.3181,0.0,2.7,63.0,3.4,'11111222,11111222,11111222' 
TCOON,ioos:station:TCOON:013:1,2017-03-01T20:42:00Z,27.4847,-97.3181,0.0,2.4,42.0,3.2,'11111222,11111222,11111222' 
TCOON,ioos:station:TCOON:013:1,2017-03-01T20:54:00Z,27.4847,-97.3181,0.0,2.3,8.0,2.9,'11111222,11111222,11111222' 
TCOON,ioos:station:TCOON:013:1,2017-03-01T21:00:00Z,27.4847,-97.3181,0.0,2.0,16.0,2.3,'11111222,11111222,11111222' 
TCOON,ioos:station:TCOON:013:1,2017-03-01T21:06:00Z,27.4847,-97.3181,0.0,2.6,18.0,3.0,'11111222,11111222,11111222' 
TCOON,ioos:station:TCOON:013:1,2017-03-01T21:12:00Z,27.4847,-97.3181,0.0,3.2,19.0,3.6,'11111222,11111222,11111222' 
TCOON,ioos:station:TCOON:013:1,2017-03-01T21:18:00Z,27.4847,-97.3181,0.0,3.7,39.0,4.6,'11111222,11111222,11111222' 
TCOON,ioos:station:TCOON:013:1,2017-03-01T21:24:00Z,27.4847,-97.3181,0.0,3.2,37.0,4.9,'11111222,11111222,11111222' 
TCOON,ioos:station:TCOON:013:1,2017-03-01T21:30:00Z,27.4847,-97.3181,0.0,4.6,66.0,5.5,'11111222,11111222,11111222' 
TCOON,ioos:station:TCOON:013:1,2017-03-01T21:36:00Z,27.4847,-97.3181,0.0,4.6,66.0,5.5,'11111222,11111222,11111222' 
TCOON,ioos:station:TCOON:013:1,2017-03-01T21:48:00Z,27.4847,-97.3181,0.0,3.8,69.0,4.5,'11111222,11111222,11111222' 
TCOON,ioos:station:TCOON:013:1,2017-03-01T21:54:00Z,27.4847,-97.3181,0.0,3.2,61.0,3.8,'11111222,11111222,11111222' 
TCOON,ioos:station:TCOON:013:1,2017-03-01T22:00:00Z,27.4847,-97.3181,0.0,3.1,60.0,3.6,'11111222,11111222,11111222' 
TCOON,ioos:station:TCOON:013:1,2017-03-01T22:06:00Z,27.4847,-97.3181,0.0,3.1,57.0,3.8,'11111222,11111222,11111222' 
TCOON,ioos:station:TCOON:013:1,2017-03-01T22:12:00Z,27.4847,-97.3181,0.0,3.1,54.0,3.7,'11111222,11111222,11111222' 
TCOON,ioos:station:TCOON:013:1,2017-03-01T22:18:00Z,27.4847,-97.3181,0.0,3.5,53.0,4.2,'11111222,11111222,11111222' 
TCOON,ioos:station:TCOON:013:1,2017-03-01T22:24:00Z,27.4847,-97.3181,0.0,4.0,40.0,4.6,'11111222,11111222,11111222' 
TCOON,ioos:station:TCOON:013:1,2017-03-01T22:30:00Z,27.4847,-97.3181,0.0,4.2,37.0,5.0,'11111222,11111222,11111222' 
TCOON,ioos:station:TCOON:013:1,2017-03-01T22:36:00Z,27.4847,-97.3181,0.0,4.1,34.0,5.4,'11111222,11111222,11111222' 
TCOON,ioos:station:TCOON:013:1,2017-03-01T22:42:00Z,27.4847,-97.3181,0.0,4.7,42.0,5.4,'11111222,11111222,11111222' 
TCOON,ioos:station:TCOON:013:1,2017-03-01T22:54:00Z,27.4847,-97.3181,0.0,4.4,33.0,4.9,'11111222,11111222,11111222' 
TCOON,ioos:station:TCOON:013:1,2017-03-01T23:00:00Z,27.4847,-97.3181,0.0,4.5,23.0,4.9,'11111222,11111222,11111222' 
TCOON,ioos:station:TCOON:013:1,2017-03-01T23:06:00Z,27.4847,-97.3181,0.0,4.8,11.0,5.3,'11111222,11111222,11111222' 
TCOON,ioos:station:TCOON:013:1,2017-03-01T23:12:00Z,27.4847,-97.3181,0.0,5.7,6.0,6.4,'11111222,11111222,11111222' 
TCOON,ioos:station:TCOON:013:1,2017-03-01T23:18:00Z,27.4847,-97.3181,0.0,7.0,11.0,7.9,'11111222,11111222,11111222' 
TCOON,ioos:station:TCOON:013:1,2017-03-01T23:24:00Z,27.4847,-97.3181,0.0,6.6,10.0,8.0,'11111222,11111222,11111222' 
TCOON,ioos:station:TCOON:013:1,2017-03-01T23:36:00Z,27.4847,-97.3181,0.0,8.9,15.0,11.0,'11111222,11111222,11111222' 
TCOON,ioos:station:TCOON:013:1,2017-03-01T23:42:00Z,27.4847,-97.3181,0.0,10.0,6.0,11.4,'11111222,11111222,11111222' 
TCOON,ioos:station:TCOON:013:1,2017-03-01T23:48:00Z,27.4847,-97.3181,0.0,9.9,6.0,12.2,'11111222,11111222,11111222' 
TCOON,ioos:station:TCOON:013:1,2017-03-01T23:54:00Z,27.4847,-97.3181,0.0,10.3,4.0,11.9,'11111222,11111222,11111222' 
TCOON,ioos:station:TCOON:013:1,2017-03-02T00:00:00Z,27.4847,-97.3181,0.0,10.7,5.0,12.7,'11111222,11111222,11111222' 
TCOON,ioos:station:TCOON:013:1,2017-03-02T00:06:00Z,27.4847,-97.3181,0.0,11.0,9.0,13.2,'11111222,11111222,11111222' 
TCOON,ioos:station:TCOON:013:1,2017-03-02T00:12:00Z,27.4847,-97.3181,0.0,10.3,10.0,12.4,'11111222,11111222,11111222' 
TCOON,ioos:station:TCOON:013:1,2017-03-02T00:18:00Z,27.4847,-97.3181,0.0,9.9,10.0,12.9,'11111222,11111222,11111222' 
TCOON,ioos:station:TCOON:013:1,2017-03-02T00:24:00Z,27.4847,-97.3181,0.0,9.8,13.0,12.0,'11111222,11111222,11111222' 
TCOON,ioos:station:TCOON:013:1,2017-03-02T00:30:00Z,27.4847,-97.3181,0.0,9.4,14.0,11.3,'11111222,11111222,11111222' 
TCOON,ioos:station:TCOON:013:1,2017-03-02T00:36:00Z,27.4847,-97.3181,0.0,9.4,12.0,11.3,'11111222,11111222,11111222' 
TCOON,ioos:station:TCOON:013:1,2017-03-02T00:42:00Z,27.4847,-97.3181,0.0,9.2,9.0,11.0,'11111222,11111222,11111222' 
TCOON,ioos:station:TCOON:013:1,2017-03-02T00:48:00Z,27.4847,-97.3181,0.0,8.4,9.0,10.2,'11111222,11111222,11111222' 
TCOON,ioos:station:TCOON:013:1,2017-03-02T00:54:00Z,27.4847,-97.3181,0.0,10.3,6.0,11.9,'11111222,11111222,11111222' 